GFSSE_con_mlcape_132.txt.gz
CAPE
1012 1227 1295 1174 1199 1085 1039 982 955 877 849 732 533 456 510 633 878 1138 1244 1346 1567 1656 1798 1662 1437 1159 1019 639 623 779 744 740 697 738 968 1154 1007 1220 1177 1109 1147 1208 1122
1264 1146 1201 1170 1180 1244 1153 1033 1010 974 1009 956 712 551 543 578 749 1010 1241 1434 1490 1390 1282 1126 1019 968 839 578 430 654 775 676 660 739 807 825 931 1074 1091 970 965 1138 1065
1478 1207 1185 1135 1140 1240 1296 1175 1135 1130 1141 1136 916 681 658 623 683 874 1125 1263 1215 1381 1295 1032 946 990 887 624 574 695 734 742 670 692 587 537 826 1041 893 879 906 968 947
1814 1310 1146 1131 1161 1244 1359 1388 1388 1419 1352 1280 1131 872 814 711 632 772 933 1088 1572 1544 1435 1223 1041 940 789 714 797 893 915 794 554 416 420 364 448 373 659 811 767 831 957
2082 1561 1347 1223 1206 1296 1330 1481 1632 1777 1610 1425 1303 1075 977 844 713 673 827 1248 1761 1661 1643 1477 1335 1173 893 797 944 981 1025 712 331 150 172 249 280 301 375 516 617 570 650
2372 2151 1735 1342 1179 1158 1253 1428 1609 1832 1743 1565 1452 1284 1163 1048 903 870 866 1222 1537 1498 1476 1499 1499 1186 888 796 947 931 1006 649 297 34 59 127 180 284 184 247 505 481 566
1743 2207 1848 1494 1315 1190 1167 1321 1563 1789 1784 1663 1523 1448 1322 1202 1078 1028 1084 1186 1502 1461 1451 1402 1359 1067 842 819 916 882 973 664 312 34 0 40 254 260 297 374 397 622 802
1569 1707 1937 1813 1600 1301 1130 1201 1316 1543 1685 1716 1615 1572 1470 1321 1168 1144 1193 1340 1397 1370 1428 1267 1183 983 825 797 822 864 923 685 330 170 0 0 251 370 481 390 361 522 701
377 1976 1595 1820 1892 1620 1292 1131 1244 1295 1490 1652 1701 1677 1646 1438 1255 1218 1303 1393 1312 1312 1297 1159 1010 878 812 816 800 823 851 812 518 22 0 0 269 517 413 328 403 430 553
0 0 47 2085 1991 1778 1432 1188 1080 1255 1344 1547 1688 1734 1772 1643 1422 1303 1374 1466 1382 1364 1249 1107 944 862 821 796 718 732 710 729 474 76 42 2 223 621 537 425 510 482 474
0 0 0 1003 2131 1829 1528 1198 1072 1102 1220 1395 1667 1768 1849 1836 1611 1489 1471 1458 1446 1419 1287 1072 899 825 788 701 613 581 595 573 550 408 318 573 702 720 624 497 376 345 301
0 0 0 0 0 185 1724 1460 1080 997 1055 1254 1449 1673 1762 1773 1657 1585 1489 1431 1496 1414 1281 1076 850 737 674 538 482 483 435 373 448 486 226 589 624 841 908 537 266 203 173
0 0 0 0 0 0 0 659 1643 1200 1038 1079 1204 1507 1553 1728 1649 1589 1460 1478 1484 1418 1273 1071 820 662 552 437 298 333 300 467 528 401 216 455 526 722 822 521 291 185 156
0 0 0 0 0 0 0 0 7 1211 1292 1119 1124 1354 1480 1604 1539 1435 1302 1306 1361 1309 1076 968 700 563 505 367 253 205 190 457 476 277 322 506 423 358 651 414 203 134 56
0 0 0 0 0 0 0 0 0 19 663 1261 1092 1285 1524 1540 1485 1396 1286 1214 1298 1171 951 762 591 491 405 300 575 275 133 444 581 234 200 327 355 223 430 417 252 49 27
0 0 0 0 0 0 0 0 0 0 418 752 1067 1222 1461 1456 1497 1486 1387 1262 1205 1150 933 663 556 445 298 168 660 602 458 430 400 222 109 202 205 146 104 113 396 238 73
0 0 0 0 0 0 0 0 0 0 0 648 642 929 1387 1451 1406 1421 1524 1346 1305 1132 927 652 504 391 201 198 564 471 661 384 351 318 141 124 0 0 13 45 253 310 270
0 0 0 0 0 0 0 0 0 0 0 0 134 384 1001 1577 1361 1352 1364 1410 1254 1123 923 784 550 449 216 375 632 507 518 397 416 331 153 71 73 35 0 0 91 117 223
0 0 0 0 0 0 0 0 0 0 0 0 128 513 532 1186 1439 1279 1358 1344 1183 1110 973 823 631 575 420 474 602 535 458 448 376 323 142 105 39 27 0 0 0 29 139
0 0 0 0 0 0 0 0 0 0 0 0 0 73 541 636 1094 1293 1418 1309 1238 1162 983 847 746 577 613 627 675 465 356 467 423 439 288 157 16 15 1 0 0 0 2
0 0 0 0 0 0 0 0 0 0 0 0 0 0 3 492 560 1028 1346 1266 1330 1176 1097 892 753 653 597 450 336 332 361 432 450 380 405 282 65 7 0 0 0 0 0
0 0 0 0 0 0 0 0 0 0 0 0 0 0 0 0 305 598 1043 1266 1355 1263 1045 882 741 638 587 417 389 452 343 376 406 450 339 257 162 108 45 0 0 0 0
0 0 0 0 0 1 0 1 1 1 1 0 0 0 0 0 9 379 726 1186 1223 1237 1049 896 775 644 602 381 374 374 112 63 238 237 182 147 135 153 124 79 10 0 0
0 0 0 0 0 2 0 0 0 0 1 1 0 0 0 0 0 4 401 787 974 1044 1059 919 755 617 557 467 373 359 67 16 82 122 128 139 72 111 86 87 68 22 0
0 0 0 1 0 0 0 1 1 2 1 0 0 1 0 0 0 0 0 207 749 959 1122 979 813 653 629 531 586 436 143 29 14 3 0 145 98 108 73 67 100 91 49
0 0 0 1 1 0 2 2 1 3 1 1 1 1 0 0 0 0 0 0 485 886 1070 1010 848 793 686 664 645 639 503 215 166 228 97 66 129 132 182 96 58 104 66

GFSSE_con_mlcape_135.txt.gz
CAPE
1114 1130 1323 1328 1181 1133 1121 1084 964 847 690 578 590 652 1011 1418 1481 1631 1625 1551 1697 1756 1898 1803 1393 1150 962 723 803 803 815 747 686 801 912 1024 1157 917 971 993 1064 1024 1040
1302 1242 1279 1246 1226 1169 1073 1074 1091 1087 943 746 687 745 864 1068 1312 1382 1436 1543 1792 1937 1916 1733 1303 1113 865 463 725 817 772 740 758 754 960 816 804 665 546 868 982 963 1015
1365 1315 1278 1217 1260 1218 1189 1091 1110 1248 1243 973 788 793 909 1073 1232 1270 1367 1431 1461 1432 1526 1310 1172 1024 681 430 495 702 736 668 739 835 832 665 493 424 401 456 811 840 850
1533 1374 1238 1255 1328 1304 1295 1290 1262 1345 1387 1276 985 884 929 1043 1262 1330 1368 1361 1333 1341 1169 1142 1159 1060 648 547 634 759 764 694 708 667 474 502 373 208 264 287 491 626 874
1677 1397 1284 1256 1267 1262 1256 1437 1537 1566 1466 1447 1265 1078 991 1026 1192 1247 1136 1323 1510 1520 1457 1452 1327 964 669 754 841 930 798 614 445 403 333 310 362 435 360 282 272 364 635
2090 1819 1620 1341 1175 1216 1292 1352 1588 1783 1703 1566 1497 1344 1159 1091 1161 1148 1146 1649 1798 1748 1624 1495 1313 936 729 830 892 980 736 502 269 215 278 363 315 509 235 214 244 285 354
1949 2085 1770 1472 1291 1274 1293 1287 1454 1725 1797 1675 1608 1553 1350 1253 1236 1037 1238 1723 1718 1587 1428 1450 1356 988 757 809 954 969 760 514 148 27 41 131 389 397 90 74 243 285 365
1640 1470 1769 1679 1520 1402 1330 1280 1281 1495 1687 1736 1668 1649 1585 1439 1344 1274 1208 1455 1543 1530 1384 1363 1264 972 782 849 929 933 777 552 265 9 0 77 234 376 92 245 281 211 293
0 0 333 1763 1826 1641 1362 1295 1307 1356 1436 1560 1639 1641 1660 1550 1437 1406 1404 1464 1557 1470 1359 1262 1132 951 807 787 826 888 710 562 320 158 15 0 412 719 822 384 379 287 238
0 0 0 0 0 736 1581 1460 1255 1350 1380 1402 1500 1604 1701 1663 1524 1463 1529 1562 1484 1391 1304 1109 957 849 786 768 745 808 754 689 470 50 0 0 20 930 865 456 403 404 372
0 0 0 0 0 0 0 744 1439 1182 1226 1158 1458 1637 1744 1786 1660 1535 1535 1564 1482 1377 1250 1068 892 818 774 750 666 708 690 626 451 172 107 53 33 878 969 652 486 445 370
0 0 0 0 0 0 0 0 0 1123 1165 1221 1297 1318 1618 1736 1752 1658 1546 1564 1529 1410 1258 1056 882 793 752 626 550 584 527 550 501 352 254 359 614 815 1093 628 539 281 187
0 0 0 0 0 0 0 0 0 0 450 1162 1259 1181 1362 1580 1700 1770 1567 1555 1530 1478 1309 1089 867 736 640 509 395 373 362 346 414 395 279 277 725 720 1098 638 487 238 193
0 0 0 0 0 0 0 0 0 0 0 242 734 1081 1093 1210 1515 1617 1566 1435 1473 1473 1208 981 775 645 475 459 315 189 265 164 313 332 265 293 531 536 707 560 466 243 132
0 0 0 0 0 0 0 0 0 0 0 0 401 778 959 1215 1461 1517 1525 1393 1398 1386 1158 965 737 517 430 382 250 153 171 173 416 333 130 318 419 391 388 533 450 221 58
0 0 0 0 0 0 0 0 0 0 0 0 0 376 756 730 1260 1446 1421 1336 1310 1220 1085 886 654 525 419 344 178 211 181 169 439 347 129 223 314 322 407 409 448 147 47
0 0 0 0 0 0 0 0 0 0 0 0 0 0 274 182 693 1220 1371 1334 1272 1129 1019 808 601 487 366 296 208 476 309 157 460 222 148 105 118 210 184 254 284 161 292
0 0 0 0 0 0 0 0 0 0 0 0 0 0 2 228 392 575 995 1393 1284 1076 994 852 665 518 377 243 65 377 367 361 477 156 146 146 22 11 5 0 26 189 306
0 0 0 0 0 0 0 0 0 0 0 0 0 0 0 20 503 719 807 1123 1378 1205 1039 892 672 506 304 198 56 306 389 369 468 256 143 102 23 2 0 0 14 15 104
0 0 0 0 0 0 0 0 0 0 0 0 0 0 0 0 0 756 571 856 1097 1053 928 850 658 490 359 236 71 315 336 294 414 379 186 88 69 27 8 0 0 0 0
0 0 0 0 0 0 0 0 0 0 0 0 0 0 0 0 0 0 780 571 817 776 886 815 648 492 403 339 122 232 250 203 236 350 345 180 89 24 0 0 0 0 0
0 0 0 0 0 0 0 0 0 0 0 1 0 0 0 0 0 1 199 441 404 742 845 614 578 553 461 304 284 292 176 297 236 278 252 217 116 15 0 0 0 0 0
0 0 0 0 0 1 0 2 1 0 0 0 0 1 0 0 0 0 0 161 106 705 755 551 564 547 507 263 307 152 60 77 167 79 254 198 168 78 9 0 0 0 0
0 0 0 0 0 1 2 2 1 1 2 0 0 0 1 3 0 0 0 0 223 352 666 581 521 522 454 370 189 137 55 19 45 53 27 72 85 137 107 22 0 0 0
0 0 0 0 1 0 0 1 2 2 3 2 0 1 0 0 0 0 0 0 0 0 36 604 532 473 446 410 353 253 130 23 0 0 11 60 27 41 39 90 77 23 0
0 0 0 0 0 1 1 1 2 2 3 2 5 1 0 0 0 0 0 0 0 0 7 15 472 400 434 430 313 340 317 216 87 67 7 19 58 58 54 2 12 47 30

GFSSE_con_mlcape_138.txt.gz
CAPE
1056 1202 1353 1271 1293 1256 1205 1022 862 760 723 927 1251 1419 1366 1227 1108 1127 1184 1375 1520 1710 1838 1720 1392 1074 888 805 881 907 844 790 854 1051 1081 1073 893 666 747 591 843 930 807
1388 1381 1358 1283 1247 1187 1142 1130 1093 973 873 851 1200 1529 1554 1407 1458 1585 1506 1494 1688 1833 1943 1803 1361 1143 914 801 862 897 835 767 822 1021 925 869 824 785 784 703 683 735 953
1383 1458 1363 1331 1371 1406 1319 1222 1281 1279 1123 949 972 1371 1685 1802 1880 1828 1751 1843 1941 2000 2037 1737 1341 1221 888 498 665 821 799 814 882 918 860 614 692 745 618 572 498 459 826
1396 1310 1291 1334 1329 1274 1325 1328 1373 1508 1400 1137 1038 1147 1423 1670 1726 1731 1738 1712 1860 1875 1830 1675 1375 1192 745 484 669 686 802 823 905 815 675 550 497 563 555 283 401 405 513
1508 1343 1341 1304 1284 1287 1338 1419 1490 1623 1572 1444 1180 1151 1278 1504 1577 1569 1555 1450 1285 1275 1283 1394 1322 1056 655 603 809 780 788 747 727 502 508 450 347 438 316 340 371 385 294
2105 1905 1622 1464 1420 1482 1447 1485 1508 1569 1605 1553 1452 1302 1255 1398 1626 1610 1423 1332 1319 1320 1318 1508 1336 953 718 861 957 895 727 566 453 363 421 525 396 670 414 400 279 277 218
0 18 1308 1420 1458 1418 1466 1747 1750 1700 1705 1637 1606 1485 1365 1309 1363 1418 1357 1420 1479 1435 1621 1501 1214 927 778 947 980 896 648 416 216 259 295 348 372 590 477 262 216 313 192
0 0 0 0 0 228 1260 1292 1362 1544 1465 1783 1681 1668 1574 1516 1304 1156 1258 1542 1523 1332 1346 1320 1166 956 806 884 1007 904 714 424 85 15 82 178 403 442 633 452 161 248 193
0 0 0 0 0 0 0 134 930 1232 1517 1502 1524 1665 1650 1582 1492 1307 1126 1357 1444 1336 1223 1263 1101 920 810 885 998 890 797 525 198 19 0 50 384 406 100 453 264 312 138
0 0 0 0 0 0 0 0 0 669 1215 1464 1402 1390 1532 1657 1586 1490 1369 1295 1431 1384 1275 1262 1085 903 818 832 912 846 738 581 322 140 83 0 205 558 460 365 307 293 160
0 0 0 0 0 0 0 0 0 0 128 1127 1246 1132 938 1183 1533 1557 1453 1374 1467 1367 1258 1150 973 834 746 742 811 818 765 583 426 93 0 0 11 722 1099 727 407 440 375
0 0 0 0 0 0 0 0 0 0 0 50 737 1092 983 875 1291 1344 1506 1429 1461 1420 1240 1094 920 754 710 654 699 752 672 587 471 188 65 24 0 526 796 504 401 390 215
0 0 0 0 0 0 0 0 0 0 0 0 10 414 640 962 1044 1140 1404 1454 1361 1331 1259 1117 911 715 652 582 547 540 545 463 511 347 229 210 373 713 980 722 492 365 206
0 0 0 0 0 0 0 0 0 0 0 0 0 0 422 785 791 913 1347 1431 1288 1326 1221 1040 787 701 558 505 440 331 371 313 327 351 265 156 247 804 868 850 527 456 261
0 0 0 0 0 0 0 0 0 0 0 0 0 0 0 280 937 1012 925 1070 1266 1367 1303 1036 811 617 381 367 339 271 183 169 178 228 211 215 250 681 692 809 689 434 191
0 0 0 0 0 0 0 0 0 0 0 0 0 0 0 0 266 821 832 865 999 1173 958 937 908 541 380 343 305 219 106 113 135 334 238 134 274 459 497 615 624 520 205
0 0 0 0 0 0 0 0 0 0 0 0 0 0 0 0 0 12 483 711 855 991 1033 685 563 452 426 287 277 198 85 81 102 307 247 132 208 290 346 410 297 292 203
0 0 0 0 0 0 0 0 0 0 0 0 0 0 0 0 0 0 113 498 816 1002 847 796 469 404 542 279 252 189 106 76 76 256 247 91 56 97 165 269 283 276 197
0 0 0 0 0 0 0 0 0 0 0 0 0 0 0 0 0 0 0 336 785 807 581 617 457 419 497 265 242 140 200 165 81 211 253 63 10 2 12 38 58 172 159
0 0 0 0 0 0 0 0 0 0 0 0 0 0 0 0 0 0 0 0 740 703 692 616 579 464 553 321 201 171 65 287 238 269 230 154 66 16 0 0 0 1 73
0 0 0 0 0 0 0 0 0 0 0 1 0 0 1 0 0 0 0 0 2 20 135 578 638 483 358 180 151 76 44 44 150 250 207 155 41 17 15 0 0 0 6
0 0 0 0 0 0 1 1 0 0 1 0 0 1 0 1 2 1 1 4 1 41 0 385 426 376 346 109 252 144 83 52 36 74 188 163 96 19 10 0 0 0 0
0 0 0 0 0 0 0 0 1 1 2 2 1 0 0 1 1 1 1 1 0 0 109 27 398 502 275 142 189 163 67 15 15 32 74 107 81 24 0 0 0 0 0
0 0 0 0 0 0 0 0 1 2 1 3 3 1 0 0 0 0 1 1 0 0 95 133 218 310 430 218 181 153 55 7 92 54 8 54 80 63 6 0 0 0 0
0 0 0 0 0 0 0 0 1 2 2 1 3 1 2 2 0 1 1 0 0 0 0 53 74 266 416 274 171 190 44 0 0 16 39 69 4 31 47 2 0 0 0
0 0 0 0 0 1 3 0 2 1 2 2 2 3 2 7 3 2 1 3 0 0 0 0 13 0 22 304 220 196 198 115 32 25 0 21 86 35 62 29 1 3 0

GFSSE_con_mlcape_141.txt.gz
CAPE
1247 1537 1453 1455 1360 1285 1132 877 679 679 1012 1415 1622 1450 1357 1183 1175 1158 1190 1412 1638 1739 1715 1708 1363 1093 906 987 1008 975 858 810 972 1052 1234 1098 908 848 711 808 811 928 836
1599 1615 1366 1433 1487 1348 1261 1214 994 828 927 1384 1754 1707 1509 1318 1263 1269 1470 1528 1716 1910 1953 1800 1399 1116 998 964 947 909 840 869 1014 1077 1101 1061 1025 1027 872 770 810 883 800
1540 1629 1558 1324 1385 1467 1411 1377 1406 1249 980 1134 1654 1832 1735 1543 1451 1495 1596 1687 1799 1958 2090 1947 1543 1273 1064 836 888 888 869 881 937 997 979 1031 1031 1158 949 752 745 635 524
1769 1688 1699 1494 1546 1629 1651 1470 1436 1500 1309 986 1248 1798 1824 1807 1868 1769 1751 1687 1952 2192 2115 1949 1570 1389 1119 575 574 781 826 864 940 886 921 930 980 903 888 602 474 429 447
363 1112 405 826 1242 1493 1678 1851 1913 1798 1458 1257 1068 1356 1903 2045 2079 1988 1874 1617 1914 1957 2088 1908 1617 1366 951 564 555 770 815 869 894 823 975 987 914 898 645 571 589 408 353
0 0 0 0 55 568 1252 1501 1809 1878 1801 1597 1313 1269 1477 1651 1606 1817 1841 1855 1937 1648 1726 1632 1451 1134 752 606 659 796 765 777 638 911 975 820 807 701 574 382 504 401 288
0 0 0 0 0 0 0 167 836 1403 1725 1738 1601 1510 1419 1431 1515 1419 1478 1455 1271 1233 1357 1366 1260 1030 716 744 843 838 653 545 837 857 991 911 838 660 213 242 243 212 170
0 0 0 0 0 0 0 0 11 625 1162 1636 1661 1395 1391 1470 1409 1433 1188 1035 1202 1321 1356 1410 1355 960 765 832 885 841 566 344 495 784 805 813 766 563 350 190 190 141 128
0 0 0 0 0 0 0 0 0 0 349 1048 1461 1506 1314 1142 1234 1309 1312 1146 1426 1402 1350 1235 1229 1015 855 803 833 842 649 301 569 441 454 499 429 487 402 98 332 126 104
0 0 0 0 0 0 0 0 0 0 0 51 1011 1235 1144 1113 1031 1025 1222 1074 1331 1347 1323 1231 1160 1021 863 784 797 818 744 542 677 428 229 341 239 601 360 156 249 109 59
0 0 0 0 0 0 0 0 0 0 0 0 4 445 1127 1056 1059 988 1020 1165 1199 1227 1214 1185 1007 980 852 799 787 759 724 1000 904 709 594 213 41 668 899 438 273 181 49
0 0 0 0 0 0 0 0 0 0 0 0 0 0 11 867 1044 921 879 894 898 1032 1131 1089 965 863 873 1116 1004 740 994 1068 941 863 489 0 1 579 559 519 314 231 77
0 0 0 0 0 0 0 0 0 0 0 0 0 0 0 0 926 1130 1110 1138 1370 950 1310 1205 1132 1193 1137 1164 1131 1057 1044 1138 998 979 553 25 0 1 892 663 437 427 175
0 0 0 0 0 0 0 0 0 0 0 0 0 0 0 0 0 639 1171 1011 1244 1625 1490 1693 1461 1304 1254 1178 1160 996 1009 927 849 1005 893 182 172 411 782 1162 526 428 375
0 0 0 0 0 0 0 0 0 0 0 0 0 0 0 0 0 0 530 1156 967 1019 1402 1415 1318 1202 1147 749 906 979 855 802 762 802 936 335 137 261 883 1256 737 362 410
0 0 0 0 0 0 0 0 0 0 0 0 0 0 0 0 0 0 0 406 912 862 948 1108 1239 1027 1030 556 626 896 794 660 653 715 828 667 184 289 761 823 970 753 375
0 0 0 0 0 0 0 0 0 0 0 0 0 0 0 0 0 0 0 0 141 875 874 1017 977 1097 899 473 597 760 806 661 470 542 686 731 379 207 495 569 675 559 383
0 0 0 0 0 0 0 0 0 0 0 0 0 0 0 0 0 0 0 0 1 248 817 890 861 753 667 547 462 742 736 721 459 467 713 789 697 546 322 351 383 295 206
0 0 0 0 0 0 0 0 0 0 0 0 0 0 0 0 0 0 0 0 0 0 172 729 709 648 403 508 534 703 702 691 492 335 589 774 741 596 516 250 265 184 165
0 0 0 0 0 0 0 0 0 0 0 0 0 0 0 0 1 1 0 0 0 0 0 468 472 539 463 501 476 676 655 730 564 395 426 705 670 601 593 532 338 282 161
0 0 0 0 0 0 0 0 0 0 0 0 0 0 0 2 3 2 2 5 0 0 0 5 426 219 266 343 416 411 431 614 632 633 556 680 669 471 449 382 362 250 133
0 0 0 0 0 0 0 1 1 0 1 0 1 1 1 1 2 0 0 3 5 6 3 1 109 177 101 295 403 376 297 133 128 259 658 789 706 523 196 232 211 220 187
0 0 0 0 0 0 1 0 0 1 1 0 2 2 0 4 2 1 0 1 7 8 4 0 3 0 0 68 264 350 198 54 176 91 129 476 584 672 392 217 161 116 233
0 0 0 0 0 0 0 0 2 2 2 2 3 3 3 0 5 2 1 1 2 4 9 4 10 0 0 3 64 419 314 246 137 191 136 318 498 499 520 206 22 34 100
0 0 0 0 0 0 1 0 1 3 3 3 1 3 2 2 3 6 2 2 2 7 0 0 0 59 0 55 4 211 366 264 196 147 130 109 251 401 497 433 130 2 27
0 0 0 0 0 0 3 2 5 4 2 1 1 2 2 3 4 2 3 8 2 4 0 0 5 83 196 11 40 119 283 291 124 127 141 276 106 172 298 398 253 132 86

GFSSE_con_mlcape_144.txt.gz
CAPE
1993 1963 1436 1591 1423 1294 1160 875 667 799 1267 1686 1773 1462 1449 1489 1390 1334 1351 1333 1453 1567 1801 1960 1548 1139 1043 1173 1326 1302 1001 971 955 1158 1161 1163 1079 1036 938 1022 928 1155 1106
2017 1939 1338 1493 1672 1668 1390 1239 1012 789 952 1645 2021 1762 1583 1590 1462 1421 1598 1691 1721 1950 2017 1934 1617 1258 1178 1133 1091 1019 909 973 1051 1058 1216 1245 1196 1157 1136 962 1063 983 917
1941 1691 1570 1147 1454 1643 1748 1602 1583 1371 1001 1148 1851 2055 1887 1697 1552 1568 1705 1879 1942 2191 2212 2044 1613 1315 1323 1082 997 999 942 961 1019 1020 955 1246 1116 1295 1167 906 1020 636 578
336 67 22 299 836 1243 1482 1763 1839 1836 1630 1219 1438 2074 1998 1767 1534 1542 1782 1869 2031 2151 2241 2209 1895 1576 1450 879 886 924 921 955 1026 956 973 1267 1165 1267 1096 914 641 547 601
1 0 0 0 3 90 387 891 1353 1765 1874 1605 1376 1696 1843 1680 1569 1558 1421 1670 1894 1881 2180 2303 2101 1797 1400 831 614 733 832 936 994 763 1239 1276 1218 953 891 590 351 488 406
0 0 0 0 0 0 0 10 244 909 1442 1857 1727 1307 1384 1747 1955 1917 1593 1556 1691 1752 2047 2080 1992 1784 1242 718 636 758 806 903 846 1074 1264 1215 1270 789 820 564 494 494 234
0 0 0 0 0 0 0 0 0 47 549 1289 1769 1767 1287 1144 1450 1693 1779 1611 1307 1731 1668 1596 1738 1706 1033 635 689 788 764 788 906 1159 1264 1303 1046 585 688 443 383 329 167
0 0 0 0 0 0 0 0 0 0 0 183 1171 1549 1685 1401 1029 1072 1418 1531 1288 1095 1226 1283 1358 1495 1024 711 821 838 697 597 730 1085 1183 1201 940 658 589 226 269 148 107
0 0 0 0 0 0 0 0 0 0 0 0 110 741 1125 1330 1344 1167 1007 1240 1329 1165 1259 1283 1420 1516 1095 822 899 870 642 487 867 1019 1058 996 878 704 662 189 168 151 57
0 0 0 0 0 0 0 0 0 0 0 0 0 0 46 890 1013 1203 1213 951 863 1279 1506 1426 1419 1431 1124 900 873 900 730 452 696 999 919 769 509 497 615 158 107 121 39
0 0 0 0 0 0 0 0 0 0 0 0 0 0 0 252 1488 1368 1281 1171 1004 849 1211 1470 1271 1162 1186 960 847 860 787 1006 959 1015 739 565 360 599 701 399 246 174 44
0 0 0 0 0 0 0 0 0 0 0 0 0 0 0 0 0 856 1147 984 943 892 925 798 1212 1085 1018 1188 1110 844 1094 1089 1267 1097 821 644 339 488 877 458 417 236 17
0 0 0 0 0 0 0 0 0 0 0 0 0 0 0 0 0 0 1204 1389 1354 1093 1228 1041 892 1161 1013 1171 1099 1223 1082 1190 1354 1137 831 429 0 251 894 709 411 287 48
0 0 0 0 0 0 0 0 0 0 0 0 0 0 0 0 0 0 0 707 1466 1432 1336 1156 1127 1170 1161 1285 1349 1138 1179 1278 1273 1115 867 463 0 6 214 774 513 286 174
0 0 0 0 0 0 0 0 0 0 0 0 0 0 0 0 0 0 0 0 596 1549 1411 1500 1456 1423 1211 1289 1351 1293 1245 1286 1213 1097 840 621 150 78 271 925 718 403 340
0 0 0 0 0 0 0 0 0 0 0 0 0 0 0 0 0 0 0 0 0 413 1156 1494 1438 1551 1319 1257 1364 1396 1218 1081 1166 1126 847 808 309 157 272 892 1159 766 525
0 0 0 0 0 0 0 0 0 0 0 0 0 0 0 0 0 0 0 0 0 0 262 1023 1372 1289 1457 1234 1158 1358 1129 1081 1043 935 948 621 709 160 157 889 1166 932 678
0 0 0 0 0 0 0 0 0 0 0 0 0 0 0 0 0 0 0 0 0 0 0 394 863 1120 1170 1173 1080 1252 1133 1038 957 901 925 633 548 620 161 680 800 856 724
0 0 0 0 0 0 0 0 0 0 0 0 0 0 0 0 0 0 0 0 0 0 0 2 173 767 792 1031 882 963 1082 927 877 920 852 701 629 697 740 367 459 518 557
0 0 0 0 0 0 0 0 0 0 0 0 0 0 0 0 1 1 0 0 0 0 0 0 7 314 565 816 881 866 896 992 774 849 804 611 724 816 839 816 535 463 180
0 0 0 0 0 0 0 0 0 0 0 0 0 0 1 0 2 3 2 2 2 0 0 0 0 4 402 739 668 680 717 897 802 710 752 643 658 775 751 753 816 540 236
0 0 0 0 0 0 0 0 0 0 0 0 0 0 1 2 6 2 3 2 4 4 2 4 0 9 192 899 337 442 464 371 575 717 744 701 610 676 657 684 631 445 391
0 0 0 0 0 0 0 0 0 0 0 0 0 0 0 1 0 4 4 9 2 2 0 3 4 4 33 312 499 345 394 197 212 448 699 732 667 685 682 655 582 507 331
0 0 0 0 0 0 0 0 0 0 2 0 1 1 0 2 3 6 3 2 6 7 6 3 0 16 14 76 320 339 92 17 163 236 651 683 762 711 698 653 580 557 287
0 0 0 0 0 0 0 0 0 1 0 1 2 3 4 3 5 4 5 4 2 10 4 5 1 0 20 35 114 22 76 4 101 160 305 564 571 705 718 796 633 517 363
0 0 0 0 0 0 0 0 1 1 2 3 4 2 1 2 2 4 4 2 2 3 11 0 13 7 10 15 169 136 0 0 0 0 317 497 525 562 626 704 746 622 385

GFSSE_con_mlcape_147.txt.gz
CAPE
1882 1536 1223 1468 1600 1472 1340 1204 964 927 1310 1798 2030 1747 1520 1619 1675 1561 1661 1703 1914 1999 2250 2200 1454 1269 1186 1350 1428 1548 1203 984 969 1128 1219 1236 1156 1131 1084 1056 962 1183 1083
1104 1088 664 1129 1445 1648 1711 1595 1600 1448 1266 1593 2143 2067 1735 1723 1737 1566 1600 1790 1972 1973 2312 2447 1965 1399 1307 1391 1223 1210 1052 981 1012 1120 1242 1234 1331 1268 1152 862 867 588 855
503 312 226 238 629 905 1228 1566 1778 1875 1775 1612 2060 2267 2031 1879 1851 1732 1600 1421 1937 1936 2453 2409 2063 1606 1533 1278 1128 1135 1012 1016 1045 985 1000 1423 1250 1368 1261 879 1013 552 460
60 0 0 0 46 217 476 784 1163 1473 1750 1707 1532 1828 2064 1798 1542 1372 1303 1332 1445 1862 2392 2084 1770 1782 1701 1247 1069 1073 1034 1008 997 876 925 1469 1342 1266 1251 970 853 588 397
0 0 0 0 0 0 1 60 342 786 1226 1680 1741 1522 1734 1940 1590 1504 1373 1349 1432 1631 2174 2114 1864 2027 1885 1261 856 825 834 927 988 806 1099 1306 1202 1236 1222 814 748 606 513
0 0 0 0 0 0 0 0 0 2 259 913 1596 1765 1558 1482 1801 1631 1660 1525 1492 1459 1733 2209 2023 1934 1789 1313 802 678 738 871 913 1045 1196 1096 1273 836 1063 799 669 553 288
0 0 0 0 0 0 0 0 0 0 0 53 732 1429 1699 1581 1336 1368 1556 1659 1604 1564 1653 2106 2211 2021 1681 1204 745 662 730 803 1019 1007 1111 1155 1213 807 611 434 494 380 210
0 0 0 0 0 0 0 0 0 0 0 0 1 114 473 1173 1462 1287 1253 1375 1498 1677 1692 1624 1699 1868 1600 1088 709 669 707 680 838 1081 1066 1071 1197 789 672 496 389 282 130
0 0 0 0 0 0 0 0 0 0 0 0 0 0 0 277 1033 1326 1283 1173 1260 1224 1292 1244 1280 1514 1495 1175 822 753 742 627 750 967 985 1125 1055 895 717 553 243 179 60
0 0 0 0 0 0 0 0 0 0 0 0 0 0 0 35 953 1126 1030 1259 1095 1103 1017 1158 1363 1456 1490 1329 921 832 802 644 749 831 1012 1074 1061 817 742 625 174 121 53
0 0 0 0 0 0 0 0 0 0 0 0 0 0 0 0 0 123 1373 1126 1242 1230 1001 959 1248 1458 1301 1358 1030 898 840 1012 946 830 939 636 669 675 738 725 210 75 89
0 0 0 0 0 0 0 0 0 0 0 0 0 0 0 0 0 0 0 851 966 1098 1154 1036 916 1001 1209 1199 1348 922 1060 1012 1094 1135 962 618 592 650 735 668 248 121 100
0 0 0 0 0 0 0 0 0 0 0 0 0 0 0 0 0 0 0 0 1041 1487 1276 1063 1128 1107 1177 1254 1244 1478 1379 1113 1142 1090 1012 575 675 681 872 907 457 345 206
0 0 0 0 0 0 0 0 0 0 0 0 0 0 0 0 0 0 0 0 0 187 1565 1053 1131 1306 1356 1243 1378 1295 1614 1263 927 978 989 475 522 412 609 1123 684 374 300
0 0 0 0 0 0 0 0 0 0 0 0 0 0 0 0 0 0 0 0 0 0 30 1004 1530 950 1075 1422 1441 1476 1440 1211 1123 1005 1072 434 395 110 317 1148 928 520 351
0 0 0 0 0 0 0 0 0 0 0 0 0 0 0 0 0 0 0 0 0 0 0 1 339 1493 1046 1025 1334 1493 1320 1476 1176 847 885 512 374 110 0 311 925 966 510
0 0 0 0 0 0 0 0 0 0 0 0 0 0 0 0 0 0 0 0 0 0 0 0 23 431 1534 1508 1036 1294 1529 1440 1408 1362 885 1118 589 295 88 162 635 1106 756
0 0 0 0 0 0 0 0 0 0 0 0 0 0 0 0 0 0 0 0 0 0 0 0 0 57 447 865 1374 1238 1317 1473 1395 1241 1287 804 1047 925 184 119 241 761 851
0 0 0 0 0 0 0 0 0 0 0 0 0 0 0 0 0 1 0 0 0 0 0 0 0 0 271 683 954 1525 1158 1328 1471 1487 1248 912 1031 975 930 225 168 941 849
0 0 0 0 0 0 0 0 0 0 0 0 0 0 0 0 2 0 0 2 1 1 0 0 0 0 0 200 684 667 1368 1211 1379 1429 1256 948 989 893 995 890 393 751 770
0 0 0 0 0 0 0 0 0 0 0 0 0 0 1 0 2 0 3 2 1 6 1 0 2 0 0 0 408 657 1005 1185 1080 1064 1147 997 886 796 830 1029 903 721 519
0 0 0 0 0 0 0 0 0 0 0 0 0 0 0 1 1 0 3 3 4 2 3 1 0 0 7 0 9 562 438 548 659 934 892 706 550 822 994 724 900 877 757
0 0 0 0 0 0 0 0 0 0 0 0 0 0 0 1 3 3 5 6 6 3 6 6 2 0 3 4 12 313 239 63 466 604 834 647 717 761 810 867 742 931 686
0 0 0 0 0 0 0 0 0 0 0 0 0 1 3 1 1 3 4 5 6 4 1 4 8 7 4 3 1 215 285 464 341 133 368 17 446 693 730 794 801 784 815
0 0 0 0 0 0 0 1 0 0 0 0 0 0 1 0 2 0 2 1 5 4 3 3 6 2 12 6 8 10 110 494 470 447 216 117 113 405 762 797 807 820 674
0 0 0 0 0 0 0 1 0 0 0 0 1 1 1 3 1 1 2 2 3 4 4 4 1 9 1 13 1 1 48 348 324 248 292 293 376 477 796 854 843 822 933